Regional Weather Roundup
Issued by NWS

Home | Current Version | Previous Version | Text Only | Print | Product List | Glossary On
Versions: 1 2 3 4 5 6 7 8 9 10 11 12 13 14 15 16 17 18 19 20 21 22 23 24 25 26 27 28 29 30 31 32 33 34 35 36 37 38 39 40 41 42 43 44 45 46 47 48 49 50
000
ASUS43 KFSD 051010
RWRSD

WEATHER ROUNDUP FOR SOUTH DAKOTA
NATIONAL WEATHER SERVICE SIOUX FALLS SD
500 AM CDT TUE MAY 05 2015

NOTE: "FAIR" INDICATES FEW OR NO CLOUDS BELOW 12,000 FEET WITH NO
SIGNIFICANT WEATHER AND/OR OBSTRUCTIONS TO VISIBILITY.


SDZ001>005-009-010-012>017-051100-
NORTHWEST AND NORTH CENTRAL SOUTH DAKOTA

CITY           SKY/WX    TMP DP  RH WIND       PRES   REMARKS
BUFFALO          N/A     41  28  60 SE7       29.92F
FAITH            N/A     46  29  51 SE13      30.03S
MOBRIDGE       CLEAR     50  30  46 SE13      30.06R
$$

SDZ012>016-024>037-041>051-057-063-072>074-051100-
SOUTHWEST AND SOUTH CENTRAL SOUTH DAKOTA

CITY           SKY/WX    TMP DP  RH WIND       PRES   REMARKS
RAPID CTY ARPT CLEAR     40  34  79 SE5       30.02F
PIERRE         CLOUDY    53  34  48 SE7       30.08S
CUSTER         CLOUDY    39  31  72 CALM      30.06S
ELLSWORTH AFB  CLEAR     45  33  63 S12       30.01F
PHILIP         PTCLDY    39  24  55 CALM      30.05F
PINE RIDGE     MOCLDY    40  34  79 NW5       30.04F
SPEARFISH      FAIR      41  36  81 CALM      29.98F
WINNER         CLOUDY    49  38  65 E7        30.07F
$$

SDZ004>011-016>023-039-040-051100-
NORTHEAST SOUTH DAKOTA

CITY           SKY/WX    TMP DP  RH WIND       PRES   REMARKS
ABERDEEN       MOCLDY    50  32  50 CALM      30.14R
WATERTOWN      CLEAR     53  27  36 SE10      30.16R
BROOKINGS      PTCLDY    50  30  46 E9        30.15S
SISSETON         N/A     39  30  70 CALM      30.17R
$$

SDZ017-020-022-023-036>040-048>070-051100-
SOUTHEAST SOUTH DAKOTA

CITY           SKY/WX    TMP DP  RH WIND       PRES   REMARKS
SIOUX FALLS    CLOUDY    45  34  65 N5        30.12S
HURON          PTCLDY    47  30  51 SE6       30.13R
CHAMBERLAIN    MOCLDY    44  36  73 E3        30.09F
MITCHELL       PTCLDY    45  33  63 CALM      30.12S
YANKTON        CLOUDY    55  39  54 NE9       30.08F
$$

ABBREVIATIONS USED IN REMARKS
   TC - TEMPERATURE IN CELSIUS
  WCI - WIND CHILL INDEX
   HX - HEAT INDEX
  VSB - VISIBILITY



USA.gov is the U.S. government's official web portal to all federal, state and local government web resources and services.